Satellite-Ground Cal/Val Site Overpasses Predictions

Prediction of Satellite NPP Overpassing Cal/Val Site: Antarctic Dome C

Ground Cal/Val Site Location: Latitude: -75.10, Longitude: 123.35; Satellite-Ground Site NADIR distance within 100 km.

Table of predicted overpasses for the next 14.0 days since TLE Epoch: 2/17/2014
Interval Starting Time Ending Time Minimum Distance Time Minimum Distance (km)
1 02/17/2014 14:52:01 02/17/2014 14:52:30 02/17/2014 14:52:16 9.06
2 02/19/2014 07:34:52 02/19/2014 07:35:22 02/19/2014 07:35:07 4.91
3 02/22/2014 14:58:23 02/22/2014 14:58:51 02/22/2014 14:58:37 27.31
4 02/23/2014 14:39:40 02/23/2014 14:39:57 02/23/2014 14:39:49 79.84
5 02/24/2014 07:41:14 02/24/2014 07:41:42 02/24/2014 07:41:28 30.87
6 02/25/2014 07:22:30 02/25/2014 07:22:48 02/25/2014 07:22:39 79.18
7 02/27/2014 15:04:46 02/27/2014 15:05:09 02/27/2014 15:04:57 64.13
8 02/28/2014 14:45:56 02/28/2014 14:46:22 02/28/2014 14:46:09 45.10
9 03/01/2014 07:47:37 03/01/2014 07:47:59 03/01/2014 07:47:48 65.84
